map of PXR home
PXR - Airport
Location
City:  Surin, Surin, Thailand
ICAO:VTUJ
IATA:PXR

Details
Type:Airport (Aerodrome, Airfield)
Latitude:1452'06"N (14.868264)
Longitude:10329'54"E (103.498256)
Datum:WGS 1984
Elevation:478 ft (146 m)
Variation:0.83W (WMM2015v2 magnetic declination)
-0.04 annual change
Runways:1
Longest:5053 × 115 ft (1540 × 35 m), paved

Time
Time Zone:UTC+7
Local Time:

Weather
TAF:VTUJ 041100Z 0412/0512 07004KT 8000 NSC
BECMG 0420/0422 5000 BR
BECMG 0501/0503 8000 NSW

Related Locations
Nearby:
Farthest:SPIA: 12360 mi / 19892 km
Ica, ICA, PE

Find:

   beyond  
but within

Other Information
Maps:
NOTAMs:
Links:
Sources:

  
  • flag of Thailand
  

Sectional Chart

Flight Planning
at skyvector.com

Satellite Image

Google Maps Satellite view

 

Copyright © 2004-2019 Karl L. Swartz. All rights reserved.
The Great Circle Mapper name and logo are trademarks of the Great Circle Mapper.
All other trademarks mentioned herein belong to their respective owners.
Please see credits for attibutions and further copyright information.

  Follow gcmap on Facebook Follow gcmap on Twitter GCmap on LinkedIn

hCard Microformat

Geo Microformat